Showing default

IRIDIUM 144, 43249

Orbit data source: Space-Track

IRIDIUM 144, 43249 is a payload satellite owned by Iridium (US) in LEO that was launched on Fri, 30 Mar 2018 UTC via an FALCON 9 launch vehicle from the Air Force Western Test Range (AFWTR). Payload-class satellites include a variety of spacecraft equipped with specific instruments for various scientific and technological missions. These include communications satellites like Starlink; space stations such as the ISS; scientific satellites like the Hubble; Earth observation satellites from companies like Planet Labs, Umbra, and HawkEye 360; GPS; miniature CubeSats for education and research; and military/defense satellites.

Loading next visibility...
Identifier
43249, 2018-030A
Orbit
LEO
Country
Flag of USUS
Related business
Manufacturer
OATK SSG Gilbert
Mission
Operational Commercial Communications
Bus & Motor
ELITEBUS, Unknown motor
Mass
860 kg wet, 700 kg dry
Launch date (UTC)
2018-03-30 (8 years ago)
Launch vehicle
FALCON 9
Launch site
Air Force Western Test Range (AFWTR)
Object type
Payload
Rocket body
Debris
Shape & HBR
Trap Box + 2 Pan, 4.8 m
Radar Cross Section
10.154 m², Large (>1 m²)

Expand to show TLE details & history
Last TLE update: 10 hours ago

TLE from 10 hours ago
0 IRIDIUM 144
1 43249U 18030A   25310.25040972 -.00000044  00000-0 -22663-4 0  9997
2 43249  86.4001  23.5945 0001908  98.7533 261.3878 14.34218051398187
Epoch: 2025-11-06T06:00Z
TLE epoch observation values (Epoch: 2025-11-06T06:00:35.399Z)
Latitude
-0.00014°
Longitude
-112.26443°
Altitude
780.922 km
Speed
7.463 km/s
True Right ascension
01h 34m 22s
True Declination
0° 00' 00"
Sunlit
Object was in full shadow at epoch
Visualization orbit readout
Latitude
Unknown
Longitude
Unknown
Altitude
Unknown
Speed
Unknown
Apparent Right ascension
Unknown
Apparent Declination
Unknown
Sunlit
N/A
Visualization observer readout
Local Sidereal Time
11:42:05
Azimuth
Unknown
Elevation
Unknown
Doppler factor
Unknown
Orbital elements
Apogee altitude
775.995 km
Perigee altitude
773.266 km
Semi-major axis
7,152.768 km
Eccentricity
0.00019
Inclination
86.4001°
RAAN
23.5945°
Arg. of periapsis
98.7533°
True anomaly
261.36618°
Mean anomaly
261.3878°
Eccentric anomaly
261.37699°
Mean motion
3.58783 °/min
Orbital period
100.34 mins
BSTAR
-0.000022663
Loading maneuver chart data...
Computing Atmospheric mass density...
Loading historical data...
Loading historical data...
Loading historical data...
Loading historical data...
Loading historical data...
Loading historical data...
Loading historical data...

Documentation

Showing up to 5 results
|